Regional Weather Roundup
Issued by NWS Charleston, SC

Home | Current Version | Previous Version | Text Only | Print | Product List | Glossary On
Versions: 1 2 3 4 5 6 7 8 9 10 11 12 13 14 15 16 17 18 19 20 21 22 23 24 25 26 27 28 29 30 31 32 33 34 35 36 37 38 39 40 41 42 43 44 45 46 47 48 49 50
579
ASUS42 KCHS 230827
RWRCHS

REGIONAL WEATHER ROUNDUP
NATIONAL WEATHER SERVICE CHARLESTON SC
400 AM EDT THU MAR 23 2017

NOTE: "FAIR" INDICATES FEW OR NO CLOUDS BELOW 12,000 FEET WITH NO
SIGNIFICANT WEATHER AND/OR OBSTRUCTIONS TO VISIBILITY.

NOT ALL STATIONS ARE QUALITY CONTROLLED. USE DATA WITH CAUTION...
ESPECIALLY DEWPOINT OBSERVATIONS.

SCZ027-030-031-034>040-042>050-230900-
...SOUTHEAST SOUTH CAROLINA...

CITY           SKY/WX    TMP DP  RH WIND       PRES   REMARKS
N CHARLESTON   CLEAR     51  37  58 NE14      30.35F
WATERFRONT PRK   N/A     55  45  68 E21       30.33S
JOHNS ISLAND   FAIR      54  41  62 NE18G24   30.35R
PINOPOLIS        N/A     52  41  66 E13       30.29S
MONCKS CORNER  FAIR      46  34  61 E6        30.37S
SUMMERVILLE    FAIR      50  37  62 NE5       30.37S
BEAUFORT MCAS  CLEAR     56  44  64 E13G22    30.33R
BEAUFORT ARPT  FAIR      55  43  62 NE12G24   30.33R
HILTON HEAD IS PTCLDY   N/A N/A N/A NE17G28   30.32S
WALTERBORO     MOSUNNY   50  37  62 NE7       30.36S
ALLENDALE      FAIR      52  43  71 VRB6      30.33F

...SOUTHERN MIDLANDS AND PEE DEE...

CITY           SKY/WX    TMP DP  RH WIND       PRES   REMARKS
GEORGETOWN     FAIR      46  37  71 NE8       30.39S
KINGSTREE      FAIR      43  32  65 E6        30.40S
ORANGEBURG     CLEAR     50  38  63 E6        30.37R
BARNWELL       FAIR      52  43  71 E10       30.35F
AIKEN          FAIR      45  36  70 E5        30.38S
MANNING        FAIR      45  34  65 E3        30.39S
COLUMBIA       CLEAR     50  30  46 E6        30.37S
SUMTER         PTCLDY    46  34  62 E8        30.37R
FLORENCE       CLEAR     40  33  76 NE7       30.41F WCI  35
MYRTLE BEACH   CLEAR     42  32  67 N8        30.42S
N MYRTLE BEACH CLEAR     41  30  65 NE8       30.40S

$$

GAZ063-065-086>088-099>101-113>116-118-119-134>141-150-230900-
...SOUTHEAST GEORGIA...

CITY           SKY/WX    TMP DP  RH WIND       PRES   REMARKS
SAVANNAH ARPT  CLEAR     57  46  66 NE17G24   30.31R
HUNTER AAF     PTCLDY    58  51  76 NE12      30.28R
FORT STEWART   CLOUDY    59  51  74 E9        30.27R
STATESBORO     CLOUDY    56  49  78 E7        30.31S
SYLVANIA       CLOUDY   N/A N/A N/A E9        30.33S
CLAXTON        CLOUDY   N/A N/A N/A NE7       30.30S

...CSRA...CENTRAL AND FAR SOUTHEAST GEORGIA...

CITY           SKY/WX    TMP DP  RH WIND       PRES   REMARKS
THOMSON        PTCLDY    47  33  56 MISG      30.40R
AUGUSTA-BUSH   CLEAR     50  34  54 E7        30.34S
AUGUSTA-DANIEL PTCLDY    53  30  41 E10       30.34S
SWAINSBORO     CLOUDY    55  41  58 E8        30.31F
VIDALIA        CLOUDY    59  52  77 E10       30.30S
EASTMAN        CLOUDY    61  38  43 E7        30.31F
HAZLEHURST     PTSUNNY   60  54  82 NE6       30.27F
ALMA           PTCLDY    57  53  86 VRB5      30.27S
WAYCROSS       CLEAR     60  59  96 NE6       30.26S
JESUP          PTSUNNY   59  52  77 NE5       30.27F
BAXLEY         CLOUDY    59  57  94 NE7       30.27S
BRUNSWICK      CLOUDY    63  59  88 NE15G24   30.26S
SAINT SIMONS   CLOUDY    62  57  83 NE15      30.25S

$$

SCZ027-028-034-036>038-045-046-048>050-GAZ119-141-230900-
...LAKE AND SUPPLEMENTAL COASTAL OBSERVATIONS...

STATION/POSITION TIME  TEMP    WIND        PRES    WAVE   SWELL
                       AIR SEA DIR/SP/G            HT/PER HT/PER/DIR
                 (UTC) (F)     (DEG/KT/KT) (MB)    (FT/S) (FT/S/D)
WINYAH BAY       0745   52      70/ 17     1029.0S
LAKE MURRAY      0730   50      60/  3/  6 1027.8R
ACE BASIN NERRS  0730   55      40/  7     1027.0S
FORT PULASKI     0800   59 61   60/ 23/ 30 1026.1
SAPELO ISLAND    0800   62      50/ 13     1025.0

$$

ANZ835-935-AMZ111-154-330-350-352-354-370-450-454-472-230900-
...C-MAN AND BUOY OBSERVATIONS...

STATION/POSITION TIME  TEMP    WIND        PRES    WAVE   SWELL
                       AIR SEA DIR/SP/G            HT/PER HT/PER/DIR
                 (UTC) (F)     (DEG/KT/KT) (MB)    (FT/S) (FT/S/D)
BUOY 41004       0750   60 66   50/ 25/ 33 1025.6S   9/ 7   3/ 60/11
BUOY 41008       0750   63 62   50/ 19/ 23 1023.7F   5/ 6   2/100/11
FOLLY BEACH CMAN 0800   55      60/ 25/ 29 1027.7F
CAPERS NEARSHORE 0708   56      60/ 23/ 31 1027.4R
FRIPP NEARSHORE  0708   59 60   60/ 23/ 31 1027.0R


STATION/POSITION TIME  TEMP    WIND        PRES    WAVE   SWELL
                       AIR SEA DIR/SP/G            HT/PER HT/PER/DIR
                 (UTC) (F)     (DEG/KT/KT) (MB)    (FT/S) (FT/S/D)
5E ST. MARYS GA  0800      64                N/A     4/ 6
FRYING PAN BUOY  0810   55 64   50/ 21/ 27 1028.5
BUOY 41025       0750   46 74   20/ 21/ 27 1029.9S  10/ 9   5/ 70/11
CAPE LOOKOUT NC  0800   45      40/ 18/ 20 1030.1F
BUOY 41002       0750   61 72   30/ 21/ 27 1024.6R   9/10   5/ 30/10
BUOY 41010       NOT AVBL
ST AUGUSTINE FL  0800   66 66   10/ 12/ 13 1022.6F


$$




USA.gov is the U.S. government's official web portal to all federal, state and local government web resources and services.